Voltar ao catálogo

START 1 DEB

AtivoLEO
NORAD 25284·DEBRIS·🇷🇺 Russia

Lançado Mar 25, 1993 de Plesetsk Cosmodrome

Loading…

Próximas Passagens (próximas 24 horas)

TLE

AtualizadoSource: Space-Track

Época: Sep 14, 2026, 03:57 UTC

1 25284U 93014F   26257.16469633  .00000254  00000-0  89840-4 0  9992
2 25284  75.7615 142.3325 0178483 203.5612 313.6320 14.29009903481798

Acompanhe START 1 DEB em tempo real com AllMySat

Download on the App Store